• In Belgien
  • Länderverzeichnis
  • Für 7 Tage
  • Wassertemperatur
  • Satellitenkarten
  • Wetterkarte
  • Widgets
  • user-avatar
    Anmelden

    Stündliche Wetter Brüssel

    Heute, 24 Oktober, Dienstag

    Zeit Temperatur Niederschläge Wind Luftdruck Luftfeuchtigkeit
    00:00 +12°C° 0,1 mm 5 m/S 762 mmHg 92%
    01:00 +12°C° 0 mm 5 m/S 762 mmHg 92%
    02:00 +13°C° 0 mm 5 m/S 762 mmHg 93%
    03:00 +13°C° 0 mm 5 m/S 762 mmHg 93%
    04:00 +13°C° 0 mm 5 m/S 762 mmHg 94%
    05:00 +13°C° 0 mm 5 m/S 762 mmHg 94%
    06:00 +13°C° 0 mm 5 m/S 762 mmHg 94%
    07:00 +14°C° 0,1 mm 5 m/S 762 mmHg 93%
    08:00 +14°C° 0,1 mm 5 m/S 762 mmHg 93%
    09:00 +14°C° 0,1 mm 5 m/S 763 mmHg 92%
    10:00 +15°C° 0,1 mm 5 m/S 763 mmHg 92%
    11:00 +15°C° 0,1 mm 5 m/S 763 mmHg 92%
    12:00 +16°C° 0,1 mm 5 m/S 763 mmHg 92%
    13:00 +16°C° 0 mm 5 m/S 763 mmHg 91%
    14:00 +16°C° 0 mm 5 m/S 762 mmHg 89%
    15:00 +18°C° 0 mm 4 m/S 762 mmHg 88%
    16:00 +17°C° 0 mm 4 m/S 762 mmHg 90%
    17:00 +17°C° 0 mm 4 m/S 763 mmHg 91%
    18:00 +15°C° 0 mm 4 m/S 763 mmHg 93%
    19:00 +15°C° 0 mm 4 m/S 763 mmHg 93%
    20:00 +15°C° 0 mm 4 m/S 763 mmHg 93%
    21:00 +14°C° 0 mm 4 m/S 763 mmHg 93%
    22:00 +14°C° 0 mm 4 m/S 763 mmHg 93%
    23:00 +14°C° 0 mm 5 m/S 763 mmHg 93%

    Morgen, 25 Oktober, Mittwoch

    Zeit Temperatur Niederschläge Wind Luftdruck Luftfeuchtigkeit
    00:00 +14°C° 0 mm 5 m/S 763 mmHg 93%
    01:00 +14°C° 0 mm 5 m/S 763 mmHg 93%
    02:00 +14°C° 0 mm 5 m/S 762 mmHg 93%
    03:00 +14°C° 0 mm 5 m/S 762 mmHg 93%
    04:00 +14°C° 0 mm 5 m/S 762 mmHg 93%
    05:00 +14°C° 0 mm 5 m/S 762 mmHg 93%
    06:00 +14°C° 0 mm 5 m/S 762 mmHg 93%
    07:00 +14°C° 0 mm 5 m/S 763 mmHg 90%
    08:00 +15°C° 0 mm 5 m/S 763 mmHg 87%
    09:00 +15°C° 0 mm 6 m/S 763 mmHg 83%
    10:00 +16°C° 0 mm 5 m/S 763 mmHg 81%
    11:00 +16°C° 0 mm 5 m/S 763 mmHg 78%
    12:00 +18°C° 0 mm 4 m/S 764 mmHg 75%
    13:00 +18°C° 0 mm 4 m/S 764 mmHg 76%
    14:00 +18°C° 0 mm 3 m/S 764 mmHg 77%
    15:00 +18°C° 0 mm 3 m/S 764 mmHg 77%
    16:00 +17°C° 0 mm 2 m/S 764 mmHg 81%
    17:00 +16°C° 0 mm 2 m/S 764 mmHg 85%
    18:00 +15°C° 0 mm 2 m/S 764 mmHg 89%
    19:00 +15°C° 0 mm 2 m/S 765 mmHg 90%
    20:00 +14°C° 0 mm 2 m/S 765 mmHg 90%
    21:00 +14°C° 0 mm 2 m/S 765 mmHg 91%
    22:00 +14°C° 0 mm 2 m/S 765 mmHg 91%
    23:00 +14°C° 0 mm 2 m/S 765 mmHg 91%

    übermorgen, 26 Oktober, Donnerstag

    Zeit Temperatur Niederschläge Wind Luftdruck Luftfeuchtigkeit
    00:00 +13°C° 0 mm 2 m/S 765 mmHg 91%
    01:00 +13°C° 0 mm 2 m/S 765 mmHg 92%
    02:00 +13°C° 0 mm 2 m/S 764 mmHg 92%
    03:00 +13°C° 0 mm 2 m/S 764 mmHg 93%
    04:00 +13°C° 0 mm 2 m/S 764 mmHg 93%
    05:00 +12°C° 0 mm 2 m/S 764 mmHg 93%
    06:00 +12°C° 0 mm 2 m/S 764 mmHg 93%
    07:00 +14°C° 0 mm 2 m/S 765 mmHg 90%
    08:00 +14°C° 0 mm 3 m/S 765 mmHg 87%
    09:00 +16°C° 0 mm 3 m/S 765 mmHg 84%
    10:00 +17°C° 0 mm 3 m/S 764 mmHg 79%
    11:00 +18°C° 0 mm 3 m/S 764 mmHg 75%
    12:00 +19°C° 0 mm 3 m/S 764 mmHg 70%
    13:00 +19°C° 0 mm 3 m/S 764 mmHg 71%
    14:00 +19°C° 0 mm 3 m/S 764 mmHg 72%
    15:00 +19°C° 0 mm 2 m/S 764 mmHg 72%
    16:00 +18°C° 0 mm 2 m/S 764 mmHg 77%
    17:00 +17°C° 0 mm 2 m/S 764 mmHg 81%
    18:00 +15°C° 0 mm 2 m/S 764 mmHg 86%
    19:00 +15°C° 0 mm 2 m/S 764 mmHg 87%
    20:00 +14°C° 0 mm 2 m/S 764 mmHg 89%
    21:00 +14°C° 0 mm 2 m/S 764 mmHg 91%
    22:00 +14°C° 0 mm 2 m/S 764 mmHg 92%
    23:00 +13°C° 0 mm 3 m/S 763 mmHg 93%

    27 Oktober, Freitag

    Zeit Temperatur Niederschläge Wind Luftdruck Luftfeuchtigkeit
    00:00 +12°C° 0 mm 3 m/S 763 mmHg 94%
    01:00 +12°C° 0 mm 3 m/S 763 mmHg 95%
    02:00 +12°C° 0 mm 4 m/S 763 mmHg 95%
    03:00 +12°C° 0 mm 4 m/S 763 mmHg 96%
    04:00 +12°C° 0,1 mm 4 m/S 762 mmHg 95%
    05:00 +13°C° 0,1 mm 4 m/S 762 mmHg 94%
    06:00 +13°C° 0,1 mm 4 m/S 762 mmHg 93%
    07:00 +13°C° 0,3 mm 4 m/S 763 mmHg 91%
    08:00 +13°C° 0,3 mm 4 m/S 763 mmHg 88%
    09:00 +13°C° 0,3 mm 5 m/S 763 mmHg 85%
    10:00 +13°C° 0,1 mm 5 m/S 763 mmHg 80%
    11:00 +14°C° 0,1 mm 5 m/S 764 mmHg 74%
    12:00 +14°C° 0,1 mm 6 m/S 764 mmHg 69%
    13:00 +14°C° 0 mm 5 m/S 764 mmHg 69%
    14:00 +13°C° 0 mm 5 m/S 764 mmHg 69%
    15:00 +13°C° 0 mm 5 m/S 764 mmHg 69%
    16:00 +12°C° 0 mm 4 m/S 764 mmHg 73%
    17:00 +11°C° 0 mm 4 m/S 765 mmHg 77%
    18:00 +10°C° 0 mm 3 m/S 765 mmHg 81%
    19:00 +9°C° 0 mm 3 m/S 765 mmHg 83%
    20:00 +9°C° 0 mm 3 m/S 765 mmHg 84%
    21:00 +9°C° 0 mm 2 m/S 765 mmHg 86%
    22:00 +9°C° 0 mm 3 m/S 765 mmHg 85%
    23:00 +9°C° 0 mm 3 m/S 764 mmHg 84%

    28 Oktober, Samstag

    Zeit Temperatur Niederschläge Wind Luftdruck Luftfeuchtigkeit
    00:00 +9°C° 0 mm 3 m/S 764 mmHg 83%
    01:00 +8°C° 0 mm 4 m/S 763 mmHg 83%
    02:00 +8°C° 0 mm 4 m/S 762 mmHg 83%
    03:00 +8°C° 0 mm 5 m/S 762 mmHg 83%
    04:00 +8°C° 0 mm 5 m/S 761 mmHg 82%
    05:00 +8°C° 0 mm 5 m/S 760 mmHg 81%
    06:00 +8°C° 0 mm 6 m/S 759 mmHg 80%
    07:00 +9°C° 0 mm 6 m/S 758 mmHg 77%
    08:00 +10°C° 0 mm 6 m/S 758 mmHg 74%
    09:00 +11°C° 0 mm 7 m/S 757 mmHg 70%
    10:00 +11°C° 0,1 mm 7 m/S 756 mmHg 72%
    11:00 +11°C° 0,1 mm 7 m/S 755 mmHg 74%
    12:00 +11°C° 0,1 mm 7 m/S 754 mmHg 77%
    13:00 +11°C° 0,2 mm 7 m/S 753 mmHg 77%
    14:00 +11°C° 0,2 mm 7 m/S 752 mmHg 77%
    15:00 +10°C° 0,2 mm 7 m/S 752 mmHg 77%
    16:00 +10°C° 0,4 mm 7 m/S 752 mmHg 75%
    17:00 +10°C° 0,4 mm 8 m/S 752 mmHg 74%
    18:00 +9°C° 0,4 mm 8 m/S 752 mmHg 73%
    19:00 +9°C° 0,2 mm 8 m/S 752 mmHg 73%
    20:00 +8°C° 0,2 mm 7 m/S 752 mmHg 73%
    21:00 +6°C° 0,2 mm 7 m/S 753 mmHg 73%
    22:00 +6°C° 0,3 mm 7 m/S 753 mmHg 74%
    23:00 +6°C° 0,3 mm 7 m/S 753 mmHg 75%

    29 Oktober, Sonntag

    Zeit Temperatur Niederschläge Wind Luftdruck Luftfeuchtigkeit
    00:00 +6°C° 0,3 mm 7 m/S 753 mmHg 76%
    01:00 +6°C° 0,2 mm 7 m/S 753 mmHg 76%
    02:00 +6°C° 0,2 mm 7 m/S 753 mmHg 77%
    03:00 +6°C° 0,2 mm 8 m/S 753 mmHg 77%
    04:00 +7°C° 0,3 mm 8 m/S 753 mmHg 77%
    05:00 +8°C° 0,3 mm 7 m/S 753 mmHg 77%
    06:00 +8°C° 0,3 mm 7 m/S 754 mmHg 78%
    07:00 +9°C° 0,2 mm 8 m/S 754 mmHg 76%
    08:00 +9°C° 0,2 mm 8 m/S 755 mmHg 75%
    09:00 +10°C° 0,2 mm 8 m/S 756 mmHg 74%
    10:00 +10°C° 0,2 mm 8 m/S 756 mmHg 73%
    11:00 +10°C° 0,2 mm 8 m/S 757 mmHg 72%
    12:00 +10°C° 0,2 mm 8 m/S 757 mmHg 71%
    13:00 +10°C° 0,1 mm 7 m/S 758 mmHg 70%
    14:00 +10°C° 0,1 mm 7 m/S 758 mmHg 70%
    15:00 +10°C° 0,1 mm 7 m/S 759 mmHg 69%
    16:00 +9°C° 0 mm 6 m/S 760 mmHg 71%
    17:00 +9°C° 0 mm 5 m/S 760 mmHg 72%
    18:00 +8°C° 0 mm 4 m/S 761 mmHg 74%
    19:00 +8°C° 0,1 mm 4 m/S 761 mmHg 75%
    20:00 +9°C° 0,1 mm 3 m/S 762 mmHg 76%
    21:00 +9°C° 0,1 mm 3 m/S 762 mmHg 77%
    22:00 +9°C° 0 mm 3 m/S 762 mmHg 78%
    23:00 +9°C° 0 mm 3 m/S 762 mmHg 80%

    30 Oktober, Montag

    Zeit Temperatur Niederschläge Wind Luftdruck Luftfeuchtigkeit
    00:00 +9°C° 0 mm 3 m/S 763 mmHg 81%
    01:00 +8°C° 0 mm 3 m/S 762 mmHg 83%
    02:00 +7°C° 0 mm 3 m/S 762 mmHg 84%
    03:00 +7°C° 0 mm 3 m/S 762 mmHg 86%
    04:00 +5°C° 0 mm 4 m/S 762 mmHg 85%
    05:00 +5°C° 0 mm 4 m/S 762 mmHg 84%
    06:00 +5°C° 0 mm 4 m/S 762 mmHg 84%
    07:00 +6°C° 0 mm 4 m/S 762 mmHg 82%
    08:00 +6°C° 0 mm 5 m/S 761 mmHg 80%
    09:00 +7°C° 0 mm 5 m/S 761 mmHg 78%
    10:00 +8°C° 0,1 mm 5 m/S 761 mmHg 80%
    11:00 +9°C° 0,1 mm 5 m/S 761 mmHg 81%
    12:00 +9°C° 0,1 mm 5 m/S 761 mmHg 83%
    13:00 +11°C° 0,1 mm 4 m/S 761 mmHg 84%
    14:00 +11°C° 0,1 mm 4 m/S 760 mmHg 84%
    15:00 +11°C° 0,1 mm 4 m/S 760 mmHg 85%
    16:00 +11°C° 0,1 mm 4 m/S 760 mmHg 86%
    17:00 +10°C° 0,1 mm 4 m/S 761 mmHg 88%
    18:00 +10°C° 0,1 mm 3 m/S 761 mmHg 89%
    19:00 +10°C° 0,1 mm 3 m/S 761 mmHg 90%
    20:00 +10°C° 0,1 mm 3 m/S 761 mmHg 90%
    21:00 +10°C° 0,1 mm 4 m/S 761 mmHg 90%
    22:00 +10°C° 0,1 mm 3 m/S 761 mmHg 91%
    23:00 +10°C° 0,1 mm 3 m/S 761 mmHg 92%
    Mehr zeigen